CDT,Max TemperatureF,Mean TemperatureF,Min TemperatureF,Max Dew PointF,MeanDew PointF,Min DewpointF,Max Humidity, Mean Humidity, Min Humidity, Max Sea Level PressureIn, Mean Sea Level PressureIn, Min Sea Level PressureIn, Max VisibilityMiles, Mean VisibilityMiles, Min VisibilityMiles, Max Wind SpeedMPH, Mean Wind SpeedMPH, Max Gust SpeedMPH,PrecipitationIn, CloudCover, Events, WindDirDegrees
2013-7-1,60,53,46,55,47,43,100,76,61,30.27,30.22,30.12,10,10,2,15,5,23,0.00,0,,64
2013-7-2,64,51,39,48,43,39,100,71,41,30.22,30.17,30.11,10,10,3,10,2,,0.00,0,,50
2013-7-3,71,55,39,53,47,39,99,73,48,30.11,30.04,29.97,10,10,4,8,2,,0.00,0,,59
2013-7-4,76,58,42,62,53,42,100,81,60,29.98,29.92,29.86,10,10,1,9,2,,0.00,1,,53
2013-7-5,87,68,49,64,59,50,100,67,42,29.88,29.83,29.76,10,8,0,20,6,29,0.00,2,Fog,207
2013-7-6,80,72,64,72,66,61,98,80,60,29.89,29.84,29.81,10,9,2,12,5,17,0.60,3,Rain,225
2013-7-7,60,57,49,65,54,49,100,98,93,30.02,29.91,29.84,10,5,0,16,9,22,0.29,8,Fog-Rain,63
2013-7-8,68,58,50,60,54,50,100,93,76,30.06,30.01,29.96,10,6,0,12,6,18,0.01,6,Fog-Rain,57
2013-7-9,66,58,50,62,54,50,100,96,77,30.02,29.88,29.79,10,5,0,10,3,16,0.14,7,Fog-Rain,50
2013-7-10,78,67,57,58,54,52,90,65,41,30.03,29.97,29.88,10,10,10,16,10,22,0.00,2,Rain,312
2013-7-11,82,66,49,61,56,49,98,73,42,30.11,30.04,29.98,10,10,7,10,3,16,0.00,0,,217
2013-7-12,86,69,53,65,60,53,98,69,48,30.01,29.94,29.87,10,10,5,20,5,25,0.00,2,,199
2013-7-13,76,68,61,68,65,60,97,83,60,30.08,30.01,29.92,10,10,5,10,6,17,0.03,7,Rain,194
2013-7-14,78,68,59,68,63,58,98,85,64,30.21,30.14,30.07,10,10,7,10,1,,0.00,6,,279
2013-7-15,73,66,59,68,64,59,100,93,82,30.26,30.23,30.19,10,6,0,12,3,17,0.00,6,Fog-Rain,54
2013-7-16,90,74,58,73,65,58,100,80,51,30.20,30.16,30.11,10,7,0,15,4,20,0.00,3,Fog,256
2013-7-17,91,76,62,72,67,61,95,75,49,30.20,30.15,30.08,10,10,10,16,7,22,0.00,2,,241
2013-7-18,92,76,61,73,67,61,100,78,48,30.10,29.86,29.63,10,8,0,25,5,33,0.02,3,Fog-Rain,229
2013-7-19,80,73,64,72,62,54,96,67,40,29.83,29.74,29.62,10,10,7,18,9,25,0.07,2,Rain,289
2013-7-20,67,61,55,56,50,46,92,67,54,30.02,29.96,29.84,10,10,10,12,6,16,0.00,2,,48
2013-7-21,63,57,52,56,52,50,95,83,69,30.03,29.96,29.85,10,10,10,16,8,23,0.00,3,,57
2013-7-22,83,68,53,70,57,50,97,74,50,29.84,29.72,29.61,10,10,10,22,8,28,0.00,6,Rain,316
2013-7-23,70,60,49,55,51,48,99,72,50,30.03,29.97,29.82,10,10,10,10,6,,0.00,1,,25
2013-7-24,75,60,46,57,53,46,100,76,49,30.07,30.01,29.93,10,10,2,13,4,18,0.00,3,,224
2013-7-25,81,67,54,65,58,53,100,83,48,29.94,29.91,29.84,10,8,0,10,4,17,0.44,5,Fog-Rain,259
2013-7-26,58,54,50,57,52,44,100,90,69,30.10,29.97,29.86,10,7,1,16,5,23,0.19,8,Rain,28
2013-7-27,56,50,46,51,48,42,97,86,76,30.07,29.96,29.90,10,10,3,14,7,21,0.13,8,Rain,334
2013-7-28,70,59,48,55,50,47,97,77,51,30.04,29.97,29.93,10,10,10,13,6,17,0.01,6,,344
2013-7-29,75,59,43,58,52,44,100,77,46,30.11,30.08,30.04,10,10,3,8,2,,0.00,1,,222
2013-7-30,71,63,55,63,59,54,97,87,73,30.12,30.07,30.03,10,10,10,10,2,16,0.00,6,Rain,228
2013-7-31,77,66,57,64,56,50,99,71,40,30.04,29.98,29.94,10,9,5,18,8,28,0.01,2,Rain,260